{"data":{"norad_id":63488,"epoch":"2026-09-21T22:42:59.508576Z","epoch_age_seconds":85840,"freshness":"FRESH","line1":"1 63488U 25009DR  26264.94652209  .00009156  00000+0  49336-3 0  9990","line2":"2 63488  97.4776 338.3183 0006280 160.5013 199.6461 15.15006784 81284","mean_motion":15.15006784,"eccentricity":0.000628,"inclination_deg":97.4776,"raan_deg":338.3183,"arg_perigee_deg":160.5013,"mean_anomaly_deg":199.6461,"bstar":0.00049336,"rev_number":8128,"period_min":95.049079331383,"perigee_km":516.62533283227,"apogee_km":525.29059610764,"semimajor_km":6899.09496447,"source":"CELESTRAK","updated_at":"2026-09-22T09:00:29.196500Z"}}